Regional Weather Roundup
Issued by NWS Wakefield, VA

Home | Current Version | Previous Version | Graphics & Text | Print | Product List | Glossary On
Versions: 1 2 3 4 5 6 7 8 9 10 11 12 13 14 15 16 17 18 19 20 21 22 23 24 25 26 27 28 29 30 31 32 33 34 35 36 37 38 39 40 41 42 43 44 45 46 47 48 49 50
000
ASUS41 KAKQ 210810
RWRAKQ

REGIONAL WEATHER ROUNDUP
NATIONAL WEATHER SERVICE WAKEFIELD VA
400 AM EDT SUN SEP 21 2014

Note: "fair" indicates few or no clouds below 12,000 feet with no
significant weather and/or obstructions to visibility. * = Denotes
station may not report precipitation (e.g., rain,snow,etc.),
thunder or fog.

VAZ042-051-052>054-056-210900-
NORTHERN VIRGINIA

CITY           SKY/WX    TMP DP  RH WIND       PRES   REMARKS
WASH NATIONAL  MOCLDY    66  61  84 CALM      29.94F
DULLES         PTCLDY    56  55  97 SE3       29.93F
FORT BELVOIR   PTCLDY    59  58  96 CALM      29.94F
QUANTICO       PTCLDY    62  59  90 NW7       29.95F
FREDERICKSBRG* PTCLDY    60  60 100 CALM      29.94S
STAFFORD*      PTCLDY    55  55 100 CALM      29.98S FOG
WARRENTON      PTCLDY    57  57 100 CALM      29.92F
CULPEPER*      CLEAR     55  54  94 CALM      29.94F FOG
MANASSAS*      CLOUDY    55  55 100 S3        29.94F VSB 1/4
LEESBURG*      CLEAR     57  57 100 CALM      29.94F
WINCHESTER     CLEAR     59  55  88 CALM      29.92F
FRONT ROYAL*   SUNNY     59  55  88 S6        29.92F
LURAY*         SUNNY     55  55 100 CALM      29.95F
$$

VAZ048-049-060>072-079>083-210900-
CENTRAL AND SOUTH CENTRAL VIRGINIA...AND NORTH CENTRAL NORTH CAROLINA

CITY           SKY/WX    TMP DP  RH WIND       PRES   REMARKS
RICHMOND       MOCLDY    65  62  90 N5        29.92F
CHESTERFIELD*  MOSUNNY  N/A N/A N/A NW5       29.94F
PETERSBURG*    PTCLDY    64  62  94 NW5       29.93F
HANOVER        PTCLDY    61  60  97 CALM      29.95F FOG
TAPPAHANNOCK*  PTCLDY    63  60  93 CALM      29.94F
CHARLOTTSVILLE CLEAR     59  57  93 W6        29.93F
ORANGE*          N/A     54  54 100 CALM      29.95F FOG
LOUISA*        FOG       55  54  94 SE3       29.94S VSB 1/4
FARMVILLE*     FOG       59  57  94 CALM      29.93F VSB 1/2
CREWE*         PTSUNNY   61  59  92 NW5       29.94F
FORT PICKETT*  PTSUNNY   62  61  97 N3        29.94F
LUNENBURG*     PTSUNNY   62  61  97 N6        29.94F
SOUTH HILL*    MOCLDY    64  64 100 N7        29.96F
LAWRENCEVILLE* PTSUNNY   64  63  96 N6        29.90F
ROANOKE RAPIDS PTSUNNY   64  63  94 N7        29.89F
RALEIGH        MOCLDY    65  61  87 VRB5      29.92F
$$

VAZ088>098-210900-
SOUTHEAST VIRGINIA

CITY           SKY/WX    TMP DP  RH WIND       PRES   REMARKS
NORFOLK        CLOUDY    73  70  90 N12       29.87F
VIRGINIA BEACH CLOUDY    72  71  97 N8        29.84F
NORFOLK NAVAL  CLOUDY    74  70  87 N16       29.88F
WEST POINT*    PTCLDY    67  64  92 NW3       29.93F
NEWPORT NEWS   CLOUDY    72  67  84 N7        29.89F
LANGLEY AFB    CLOUDY    72  72 100 N8        29.88F
FORT EUSTIS    MOCLDY    68 N/A N/A N3        29.88F
WILLIAMSBURG*  PTCLDY    70  66  88 NE3       29.91F
HR EXEC AP*    CLOUDY    70  68  94 N6        29.89F
FRANKLIN*      CLOUDY    66  66 100 N5        29.89F
WAKEFIELD      CLOUDY    67  64  90 N3        29.90F
$$

VAZ020-022-025-037-045-210900-
WEST CENTRAL AND SOUTHWEST VIRGINIA

CITY           SKY/WX    TMP DP  RH WIND       PRES   REMARKS
STAUNTON*      PTCLDY    50  48  91 CALM      29.98F FOG
HOT SPRINGS VA CLEAR     55  40  56 SW6       30.07S
LYNCHBURG      FAIR      55  55 100 CALM      29.97F
DANVILLE       MOCLDY    58  56  93 CALM      29.96S
SOUTH BOSTON*  NOT AVBL
MARTINSVILLE   CLEAR     54  54 100 CALM      29.99F FOG
ROANOKE        CLEAR     58  55  90 CALM      30.00F
BLACKSBURG     FOG       55  55 100 CALM      30.04S VSB<1/4
DUBLIN*        PTCLDY    54  54 100 CALM      30.03S FOG
MARION*        FOG       53  52  97 CALM      30.07S VSB 1/4
HILLSVILLE*    FOG       52  52 100 CALM      30.04S VSB 1/4
RICHLANDS*     SUNNY     61  57  88 S5        30.04F
WISE*          PTCLDY    59  59 100 SW6       30.05F
ABINGDON*      CLEAR     57  56  95 CALM      30.03S
$$

MDZ021>025-VAZ099-100-210900-
SOUTHERN MARYLAND AND THE DELMARVA PENINSULA

CITY           SKY/WX    TMP DP  RH WIND       PRES   REMARKS
PATUXENT RIVER MOCLDY    68  64  87 NW8       29.92F
BAY BRIDGE APT   N/A     63  61  94 CALM      29.93F
LEONARDTOWN    PTCLDY    63  61  94 CALM      29.94F
DOVER          CLOUDY    67  67 100 NW5       29.92F
GEORGETOWN     CLOUDY    69  66  90 VRB5      29.94F FOG
EASTON         MOCLDY    66  66 100 CALM      29.97F
CAMBRIDGE      CLOUDY    70  64  83 CALM      29.92F
SALISBURY      FOG       70  67  90 N3        29.92F VSB 1
OCEAN CITY     PTCLDY   N/A N/A N/A CALM      29.91F FOG
WALLOPS ISLAND CLOUDY    70  69  97 N5        29.91F FOG
ACCOMACK*      CLOUDY    68  66  94 N5        29.90F FOG
$$

NCZ012>017-030>032-210900-
EASTERN NORTH CAROLINA

CITY           SKY/WX    TMP DP  RH WIND       PRES   REMARKS
ELIZABETH CITY RAIN      72  70  93 N9        29.84F
AHOSKIE*       CLOUDY    67  65  94 N8        29.88F
EDENTON*       LGT RAIN  69  68  97 N7        29.84F
CURRITUCK*     HVY RAIN N/A N/A N/A N7        29.85F
KILL DEVIL HLS RAIN      72  71  96 E6        29.81F
MANTEO         LGT RAIN  71  71  98 NE7       29.82F
CAPE HATTERAS  RAIN      71  71 100 E7        29.76F FOG
TARBORO*       CLOUDY    68  66  92 N7        29.87F
GOLDSBORO      CLOUDY    69  69  98 N9        29.83F
WASHINGTON     CLOUDY    69  68  97 N8        29.82F
GREENVILLE     RAIN      68  68 100 N9        29.86F
NEW BERN       HVY RAIN  73  69  87 N12       29.79F FOG
WILMINGTON     LGT RAIN  70  68  93 N14       29.77F
$$

VAZ048-210900-
ELSEWHERE

CITY           SKY/WX    TMP DP  RH WIND       PRES   REMARKS
HARRISBURG PA  PTCLDY    61  59  93 CALM      29.92F
BALTIMORE      PTCLDY    57  56  96 CALM      29.93F
ANNAPOLIS      PTCLDY    65  63  93 NW3       29.93F
ANDREWS AFB    CLEAR     57  57 100 NW3       29.92F FOG
WILMINGTON DE  PTCLDY    63  62  97 N5        29.94F
PHILADELPHIA   MOCLDY    67  63  87 NW8       29.94F
WILDWOOD NJ*   CLOUDY    70  64  83 CALM      29.95S
ATLANTIC CITY  CLOUDY    65  65 100 N7        29.94F
HENDERSON NC   PTCLDY    63  61  94 N5        29.93F FOG
GREENSBORO     PTCLDY    62  58  86 N3        29.96F
ROCKY MOUNT    CLOUDY    68  66  93 N10       29.88F
FAYETTEVILLE   MOCLDY    68  64  87 N12       29.88F
CHARLOTTE      PTCLDY    60  57  89 NW5       29.98S
$$

VAZ100-210900-
MARINE

STATION/POSITION TIME  TEMP    WIND        PRES    WAVE   SWELL
                       AIR SEA DIR/SP/G            HT/PER HT/PER
                 (UTC) (F)     (DEG/KT/KT) (MB)    (FT/S) (FT/S)
44066 TX TWR #4  0800   73 72  140/  8/ 10 1014.4F   5/ 8   5/ 8
CAPE MAY NJ      0800   70 75   90/  2/  2 1013.1F
LEWES DE         0800   71 72   40/  6/  7 1013.3F
15NM E FENWICK I 0800   72 72              1013.0F   5/ 9
OCEAN-CITY-INLET 0800   70 71   20/  3/  4 1012.7F
WACHAPREAGUE VA  0800   69 74  350/  4/  7 1012.6F
THOMAS POINT MD  0800   69 74   40/  3/  3 1014.5F
GOOSES REEF MD   0800   70      40/  6/  8 1014.2F
COVE POINT MD    0800   70      10/  6/  8 1013.4F
SOLOMONS ISLAND  0800      76                N/A
BISHOPS HEAD MD  0800   69 73   10/  5/  6 1013.2S
PINEY POINT MD   0800           30/  8/ 10   N/A
POTOMAC MD       0800   71      50/  6/ 10 1013.0S
CAMBRIDGE MD     0800   68 74  350/  4/  4 1013.4F
LEWISETTA VA     0800   70 74   30/  4/  6 1013.1F
RAPPAHANNOCK LGT 0800           20/ 14/ 15 1012.9F
STINGRAY PT      0800   72      30/ 10/ 12   N/A
YORK RVR RNG VA  0800   71      20/ 11/ 12 1011.9F
YORKTOWN VA      0800   69 76  350/  5/  6 1012.1F
JAMESTOWN VA     0800   67      10/  4/  6   N/A
DOMINION TERM VA 0800   71     360/  8/ 12 1012.1F
KIPTOPEKE VA     0800      78   10/  8/  9   N/A
CHES BAY BRIDGE  0800   73 75  360/ 15/ 17 1010.9F
CAPE HENRY VA    0800   72      10/ 15/ 16 1010.1F
CHESAPEAKE LGHT  0700   74      20/  7/  7 1012.8F
WILLOUBY STN VA  0800   72     360/ 11/ 12 1010.4F
S CRANEY ISL VA  0800          340/ 12/ 14 1011.2F
CAPE HENRY BUOY  0800      75                N/A     5/ 9   2/11
1ST LANDING BUOY 0800   73      20/ 12/ 14 1011.4F
CAPE CHARLES BUO 0800      74                N/A     5/10   5/10
OFFSHORE WE BUOY 0800      74                N/A     5/10   5/10
64NM E OF VA BCH 0800   74 75  110/ 17/ 21 1009.9F   7/ 9   5/ 9
DUCK PIER NC     0800   72 74   70/ 14/ 17 1009.6F
44100 DUCK FRF   0800      74                N/A     6/ 9   2/11
44056 DUCK FRF   0800                        N/A     6/ 9   2/11
OREGON INLET NC  0800   71 73   40/  7/ 12 1009.3F
HATTERAS NC      0800   73 75   70/  9/ 12 1007.9F
DIAMOND SHLS NC  0800   76     100/ 12/ 16 1006.4F  10/ 9   8/ 9
CAPE LOOKOUT NC  0700   72      20/ 21/ 26 1006.3F
$$


USA.gov is the U.S. government's official web portal to all federal, state and local government web resources and services.